Location: Kruen
(47.5000°N, 11.5000°E)
Time: 22:47:52
(UTC+01:00)

ISS - Pass Details

Date: 25 September 2020
Orbit: 417 x 420 km, 51.6° (Epoch: 27 October)

Event Time Altitude Azimuth Distance (km) Brightness Sun altitude
Rises 21:01:28 0° 283° (WNW) 2,366 1.6 -20.1°
Reaches altitude 10° 21:03:40 10° 291° (WNW) 1,503 0.3 -20.5°
Maximum altitude 21:06:51 39° 2° (N) 649 -2.7 -21.0°
Enters shadow 21:07:01 38° 10° (N) 653 -2.8 -21.0°
